Knox, IN

6:54 AM CDT on August 24, 2017 (GMT -0500)
Starke County

Weather History for KOXI - October, 2014

Change the Weather History Date:

Monday, October 20, 2014

  Actual Average (KRCR) Record (KRCR)
Temperature  
Mean Temperature 56 °F -  
Max Temperature 81 °F 57 °F 77 °F (2015)
Min Temperature 48 °F 36 °F 42 °F (2013)
Degree Days  
Heating Degree Days 9    
Growing Degree Days 6 (Base 50)    
Moisture  
Dew Point 45 °F    
Average Humidity 73    
Maximum Humidity 85    
Minimum Humidity 54    
Precipitation  
Precipitation 0.00 in - - ()
Sea Level Pressure  
Sea Level Pressure 29.88 in    
Wind  
Wind Speed 9 mph (West)    
Max Wind Speed 15 mph    
Max Gust Speed 20 mph    
Visibility 10 miles    
Events      
Averages and records for this station are not official NWS values.
T = Trace of Precipitation, MM = Missing Value Source: NWS Daily Summary

Daily Weather History Graph

Daily Weather History Graph

Search for Another Location

Airport or City:

Trip Planner

Search our weather history database for the weather conditions in past years. The results will help you decide how hot, cold, wet, or windy it might be!

Date:

Astronomy

Oct. 20, 2014 Rise Set
Actual Time 7:04 AM CDT 5:58 PM CDT
Civil Twilight 6:35 AM CDT 6:26 PM CDT
Nautical Twilight 6:03 AM CDT 6:58 PM CDT
Astronomical Twilight 5:31 AM CDT 7:30 PM CDT
Moon 3:49 AM CDT (10/20) 4:22 PM CDT (10/20)
Length of Visible Light 11h 50m
Length of Day
10h 54m
Waning Crescent, 10% of the Moon is Illuminated
Oct 20
Waning Crescent
Oct 23
New
Oct 30
First Quarter
Nov 6
Full
Nov 14
Last Quarter

Hourly Weather History & Observations

Time (CDT) Temp. Dew Point Humidity Pressure Visibility Wind Dir Wind Speed Gust Speed Precip Events Conditions
12:15 AM 49.1 °F 41.7 °F 76% 29.97 in 10.0 mi SSW 8.1 mph - N/A   Overcast
12:35 AM 48.6 °F 41.5 °F 77% 29.96 in 10.0 mi SSW 11.5 mph - N/A   Overcast
12:55 AM 48.2 °F 41.4 °F 77% 29.95 in 10.0 mi SSW 9.2 mph - N/A   Mostly Cloudy
1:15 AM 48.2 °F 41.4 °F 77% 29.94 in 10.0 mi SSW 9.2 mph - N/A   Mostly Cloudy
1:35 AM 48.2 °F 41.5 °F 78% 29.93 in 10.0 mi SSW 9.2 mph 16.1 mph N/A   Overcast
1:55 AM 48.2 °F 41.5 °F 78% 29.93 in 10.0 mi SSW 6.9 mph - N/A   Overcast
2:15 AM 48.2 °F 41.5 °F 78% 29.92 in 10.0 mi SSW 8.1 mph - N/A   Overcast
2:35 AM 48.2 °F 41.9 °F 79% 29.91 in 10.0 mi SSW 9.2 mph - N/A   Overcast
2:55 AM 48.2 °F 41.9 °F 79% 29.90 in 10.0 mi SSW 9.2 mph - N/A   Overcast
3:15 AM 48.2 °F 41.9 °F 79% 29.89 in 10.0 mi SSW 6.9 mph - N/A   Overcast
3:35 AM 48.2 °F 41.9 °F 79% 29.88 in 10.0 mi SSW 10.4 mph - N/A   Overcast
3:55 AM 48.7 °F 42.1 °F 78% 29.88 in 10.0 mi SW 9.2 mph - N/A   Overcast
4:15 AM 49.3 °F 42.3 °F 77% 29.87 in 10.0 mi SSW 9.2 mph 17.3 mph N/A   Overcast
4:35 AM 49.5 °F 42.4 °F 77% 29.86 in 10.0 mi SW 9.2 mph 16.1 mph N/A   Overcast
4:55 AM 49.8 °F 42.6 °F 76% 29.86 in 10.0 mi SW 9.2 mph - N/A   Overcast
5:15 AM 49.5 °F 42.8 °F 78% 29.85 in 10.0 mi SW 10.4 mph - N/A   Overcast
5:35 AM 49.1 °F 42.8 °F 79% 29.85 in 10.0 mi SSW 9.2 mph - N/A   Mostly Cloudy
5:55 AM 48.7 °F 42.8 °F 80% 29.84 in 10.0 mi SSW 8.1 mph - N/A   Scattered Clouds
6:15 AM 48.9 °F 42.8 °F 79% 29.85 in 10.0 mi SSW 6.9 mph - N/A   Clear
6:35 AM 48.4 °F 42.8 °F 81% 29.84 in 10.0 mi SSW 6.9 mph - N/A   Clear
6:55 AM 48.2 °F 42.8 °F 82% 29.83 in 10.0 mi SSW 8.1 mph - N/A   Clear
7:15 AM 48.2 °F 42.8 °F 82% 29.83 in 10.0 mi SSW 8.1 mph - N/A   Scattered Clouds
7:35 AM 48.2 °F 43.0 °F 82% 29.83 in 10.0 mi SSW 6.9 mph - N/A   Scattered Clouds
7:55 AM 48.7 °F 43.3 °F 82% 29.84 in 10.0 mi SSW 4.6 mph - N/A   Scattered Clouds
8:15 AM 50.0 °F 43.9 °F 79% 29.85 in 10.0 mi SW 8.1 mph - N/A   Scattered Clouds
8:35 AM 50.9 °F 44.2 °F 78% 29.85 in 10.0 mi SW 6.9 mph - N/A   Scattered Clouds
8:55 AM 51.4 °F 44.6 °F 77% 29.85 in 10.0 mi SW 9.2 mph - N/A   Mostly Cloudy
9:15 AM 52.0 °F 44.8 °F 76% 29.85 in 10.0 mi WSW 8.1 mph - N/A   Scattered Clouds
9:35 AM 54.0 °F 45.5 °F 73% 29.85 in 10.0 mi WSW 9.2 mph - N/A   Scattered Clouds
9:55 AM 55.8 °F 45.9 °F 69% 29.84 in 10.0 mi WSW 10.4 mph - N/A   Scattered Clouds
10:15 AM 56.8 °F 45.7 °F 66% 29.83 in 10.0 mi WSW 6.9 mph - N/A   Scattered Clouds
10:35 AM 57.0 °F 45.7 °F 66% 29.84 in 10.0 mi West 9.2 mph - N/A   Scattered Clouds
10:55 AM 57.6 °F 46.0 °F 65% 29.83 in 10.0 mi WSW 6.9 mph - N/A   Scattered Clouds
11:15 AM 57.0 °F 46.0 °F 67% 29.83 in 10.0 mi West 5.8 mph - N/A   Scattered Clouds
11:35 AM 59.0 °F 46.6 °F 63% 29.83 in 10.0 mi West 8.1 mph - N/A   Clear
11:55 AM 60.1 °F 46.4 °F 61% 29.83 in 10.0 mi West 6.9 mph - N/A   Scattered Clouds
12:15 PM 60.6 °F 46.6 °F 60% 29.82 in 10.0 mi WSW 6.9 mph - N/A   Scattered Clouds
12:35 PM 61.7 °F 46.8 °F 58% 29.82 in 10.0 mi West 6.9 mph - N/A   Clear
12:55 PM 62.4 °F 46.9 °F 57% 29.81 in 10.0 mi WNW 9.2 mph - N/A   Clear
1:15 PM 63.1 °F 46.8 °F 55% 29.82 in 10.0 mi WNW 12.7 mph - N/A   Clear
1:35 PM 63.5 °F 46.8 °F 54% 29.81 in 10.0 mi NW 6.9 mph - N/A   Clear
1:55 PM 64.0 °F 47.3 °F 54% 29.81 in 10.0 mi NW 6.9 mph - N/A   Clear
2:15 PM 64.4 °F 47.3 °F 54% 29.81 in 10.0 mi NW 9.2 mph 17.3 mph N/A   Clear
2:35 PM 63.9 °F 47.1 °F 54% 29.82 in 10.0 mi NW 10.4 mph 17.3 mph N/A   Clear
2:55 PM 63.5 °F 46.9 °F 55% 29.82 in 10.0 mi NW 9.2 mph - N/A   Clear
3:15 PM 63.1 °F 46.9 °F 55% 29.83 in 10.0 mi WNW 10.4 mph - N/A   Clear
3:35 PM 62.6 °F 46.9 °F 57% 29.84 in 10.0 mi NNW 15.0 mph - N/A   Clear
3:55 PM 61.7 °F 46.9 °F 58% 29.85 in 10.0 mi NW 9.2 mph 19.6 mph N/A   Clear
4:15 PM 60.3 °F 46.9 °F 61% 29.86 in 10.0 mi NNW 11.5 mph - N/A   Scattered Clouds
4:35 PM 58.1 °F 46.6 °F 65% 29.87 in 10.0 mi NNW 12.7 mph 17.3 mph N/A   Overcast
4:55 PM 57.4 °F 46.9 °F 68% 29.88 in 10.0 mi North 12.7 mph 18.4 mph N/A   Overcast
5:15 PM 56.7 °F 46.8 °F 69% 29.88 in 10.0 mi North 11.5 mph - N/A   Overcast
5:35 PM 55.9 °F 46.6 °F 71% 29.89 in 10.0 mi North 10.4 mph - N/A   Overcast
5:55 PM 55.0 °F 46.4 °F 73% 29.90 in 10.0 mi North 11.5 mph - N/A   Overcast
6:15 PM 54.0 °F 46.8 °F 77% 29.91 in 10.0 mi North 11.5 mph - N/A   Overcast
6:35 PM 53.6 °F 47.3 °F 79% 29.92 in 10.0 mi North 9.2 mph - N/A   Overcast
6:55 PM 53.1 °F 47.3 °F 81% 29.93 in 10.0 mi North 11.5 mph - N/A   Overcast
7:15 PM 53.1 °F 47.1 °F 80% 29.94 in 10.0 mi North 9.2 mph - N/A   Overcast
7:35 PM 52.7 °F 46.6 °F 80% 29.95 in 10.0 mi North 11.5 mph 16.1 mph N/A   Overcast
7:55 PM 52.7 °F 45.3 °F 76% 29.94 in 10.0 mi North 10.4 mph - N/A   Overcast
8:15 PM 51.6 °F 44.8 °F 77% 29.94 in 10.0 mi North 8.1 mph - N/A   Mostly Cloudy
8:35 PM 49.8 °F 44.4 °F 82% 29.95 in 10.0 mi NNW 6.9 mph - N/A   Scattered Clouds
8:55 PM 48.9 °F 44.6 °F 85% 29.95 in 10.0 mi North 4.6 mph - N/A   Mostly Cloudy
9:15 PM 49.5 °F 45.1 °F 85% 29.95 in 10.0 mi NNW 4.6 mph - N/A   Overcast
9:35 PM 50.0 °F 45.5 °F 85% 29.96 in 10.0 mi NW 3.5 mph - N/A   Overcast
9:55 PM 50.2 °F 45.7 °F 85% 29.97 in 10.0 mi NNW 3.5 mph - N/A   Overcast
10:15 PM 50.5 °F 45.5 °F 83% 29.97 in 10.0 mi NNW 6.9 mph - N/A   Overcast
10:35 PM 50.5 °F 45.1 °F 82% 29.97 in 10.0 mi NNW 4.6 mph - N/A   Overcast
10:55 PM 50.4 °F 45.0 °F 82% 29.97 in 10.0 mi NNW 3.5 mph - N/A   Overcast
11:15 PM 50.2 °F 45.0 °F 82% 29.98 in 7.0 mi NNW 10.4 mph - N/A   Overcast
11:35 PM 49.6 °F 44.8 °F 83% 29.97 in 10.0 mi NNW 6.9 mph - N/A   Overcast
11:55 PM 49.1 °F 43.7 °F 82% 29.96 in 10.0 mi NNW 4.6 mph - N/A   Overcast